Location: Larkspur
(54.4391°N, 113.7691°W)
Time: 14:31:42
(UTC+00:00)

METEOR M2 - Pass Details

Date: 10 December 2023
Orbit: 819 x 826 km, 98.4° (Epoch: 02 March)

Event Time Altitude Azimuth Distance (km) Brightness Sun altitude
Rises 11:42:18 0° 29° (NNE) 3,372 ? -33.7°
Reaches altitude 10° 11:46:38 10° 62° (ENE) 2,430 ? -33.1°
Maximum altitude 11:48:19 11° 81° (E) 2,328 ? -32.8°
Drops below altitude 10° 11:50:00 10° 99° (E) 2,423 ? -32.6°
Sets 11:54:18 0° 133° (SE) 3,346 ? -31.9°
